Year,Month,Day,Hour,Minute,Value (Times are PST for temperature in C)
2016,08,10,00,00,17.00
2016,08,10,00,01,17.00
2016,08,10,00,02,17.00
2016,08,10,00,03,16.90
2016,08,10,00,04,17.00
2016,08,10,00,05,16.90
2016,08,10,00,06,17.00
2016,08,10,00,07,17.00
2016,08,10,00,08,17.00
2016,08,10,00,09,17.00
2016,08,10,00,10,17.00
2016,08,10,00,11,17.00
2016,08,10,00,12,17.00
2016,08,10,00,13,17.00
2016,08,10,00,14,17.00
2016,08,10,00,15,17.00
2016,08,10,00,16,17.00
2016,08,10,00,17,17.00
2016,08,10,00,18,17.00
2016,08,10,00,19,17.00
2016,08,10,00,20,17.00
2016,08,10,00,21,17.00
2016,08,10,00,22,17.00
2016,08,10,00,23,17.00
2016,08,10,00,24,17.00
2016,08,10,00,25,17.00
2016,08,10,00,26,17.00
2016,08,10,00,27,16.90
2016,08,10,00,28,16.90
2016,08,10,00,29,16.90
2016,08,10,00,30,16.90
2016,08,10,00,31,16.90
2016,08,10,00,32,16.90
2016,08,10,00,33,16.90
2016,08,10,00,34,16.90
2016,08,10,00,35,16.90
2016,08,10,00,36,16.90
2016,08,10,00,37,16.90
2016,08,10,00,38,16.90
2016,08,10,00,39,16.90
2016,08,10,00,40,16.90
2016,08,10,00,41,16.90
2016,08,10,00,42,16.90
2016,08,10,00,43,16.90
2016,08,10,00,44,16.90
2016,08,10,00,45,16.90
2016,08,10,00,46,16.90
2016,08,10,00,47,16.90
2016,08,10,00,48,16.90
2016,08,10,00,49,16.90
2016,08,10,00,50,16.90
2016,08,10,00,51,16.90
2016,08,10,00,52,16.90
2016,08,10,00,53,16.90
2016,08,10,00,54,16.90
2016,08,10,00,55,16.90
2016,08,10,00,56,16.90
2016,08,10,00,57,16.90
2016,08,10,00,58,16.90
2016,08,10,00,59,16.90
2016,08,10,01,00,16.90
2016,08,10,01,01,16.90
2016,08,10,01,02,16.90
2016,08,10,01,03,16.90
2016,08,10,01,04,16.90
2016,08,10,01,05,16.90
2016,08,10,01,06,16.90
2016,08,10,01,07,16.90
2016,08,10,01,08,16.90
2016,08,10,01,09,16.90
2016,08,10,01,10,16.90
2016,08,10,01,11,16.90
2016,08,10,01,12,16.90
2016,08,10,01,13,16.90
2016,08,10,01,14,16.90
2016,08,10,01,15,16.90
2016,08,10,01,16,16.90
2016,08,10,01,17,16.90
2016,08,10,01,18,16.90
2016,08,10,01,19,16.90
2016,08,10,01,20,16.90
2016,08,10,01,21,16.90
2016,08,10,01,22,16.90
2016,08,10,01,23,16.90
2016,08,10,01,24,16.90
2016,08,10,01,25,16.90
2016,08,10,01,26,16.90
2016,08,10,01,27,16.90
2016,08,10,01,28,16.90
2016,08,10,01,29,16.90
2016,08,10,01,30,16.90
2016,08,10,01,31,16.90
2016,08,10,01,32,16.90
2016,08,10,01,33,16.90
2016,08,10,01,34,16.90
2016,08,10,01,35,16.90
2016,08,10,01,36,16.90
2016,08,10,01,37,16.90
2016,08,10,01,38,16.90
2016,08,10,01,39,16.90
2016,08,10,01,40,16.90
2016,08,10,01,41,16.90
2016,08,10,01,42,16.90
2016,08,10,01,43,16.90
2016,08,10,01,44,16.90
2016,08,10,01,45,16.90
2016,08,10,01,46,16.90
2016,08,10,01,47,16.90
2016,08,10,01,48,16.80
2016,08,10,01,49,16.80
2016,08,10,01,50,16.80
2016,08,10,01,51,16.80
2016,08,10,01,52,16.80
2016,08,10,01,53,16.80
2016,08,10,01,54,16.90
2016,08,10,01,55,16.90
2016,08,10,01,56,16.90
2016,08,10,01,57,16.90
2016,08,10,01,58,16.90
2016,08,10,01,59,16.90
2016,08,10,02,00,16.90
2016,08,10,02,01,16.90
2016,08,10,02,02,16.90
2016,08,10,02,03,16.80
2016,08,10,02,04,16.80
2016,08,10,02,05,16.80
2016,08,10,02,06,16.80
2016,08,10,02,07,16.80
2016,08,10,02,08,16.80
2016,08,10,02,09,16.80
2016,08,10,02,10,16.80
2016,08,10,02,11,16.80
2016,08,10,02,12,16.80
2016,08,10,02,13,16.80
2016,08,10,02,14,16.80
2016,08,10,02,15,16.80
2016,08,10,02,16,16.80
2016,08,10,02,17,16.80
2016,08,10,02,18,16.80
2016,08,10,02,19,16.80
2016,08,10,02,20,16.80
2016,08,10,02,21,16.80
2016,08,10,02,22,16.80
2016,08,10,02,23,16.80
2016,08,10,02,24,16.80
2016,08,10,02,25,16.80
2016,08,10,02,26,16.80
2016,08,10,02,27,16.80
2016,08,10,02,28,16.80
2016,08,10,02,29,16.80
2016,08,10,02,30,16.80
2016,08,10,02,31,16.80
2016,08,10,02,32,16.70
2016,08,10,02,33,16.70
2016,08,10,02,34,16.70
2016,08,10,02,35,16.70
2016,08,10,02,36,16.70
2016,08,10,02,37,16.70
2016,08,10,02,38,16.70
2016,08,10,02,39,16.70
2016,08,10,02,40,16.70
2016,08,10,02,41,16.70
2016,08,10,02,42,16.70
2016,08,10,02,43,16.70
2016,08,10,02,44,16.70
2016,08,10,02,45,16.70
2016,08,10,02,46,16.70
2016,08,10,02,47,16.70
2016,08,10,02,48,16.70
2016,08,10,02,49,16.70
2016,08,10,02,50,16.70
2016,08,10,02,51,16.70
2016,08,10,02,52,16.70
2016,08,10,02,53,16.70
2016,08,10,02,54,16.70
2016,08,10,02,55,16.70
2016,08,10,02,56,16.70
2016,08,10,02,57,16.70
2016,08,10,02,58,16.70
2016,08,10,02,59,16.70
2016,08,10,03,00,16.70
2016,08,10,03,01,16.70
2016,08,10,03,02,16.70
2016,08,10,03,03,16.70
2016,08,10,03,04,16.70
2016,08,10,03,05,16.70
2016,08,10,03,06,16.70
2016,08,10,03,07,16.70
2016,08,10,03,08,16.70
2016,08,10,03,09,16.70
2016,08,10,03,10,16.70
2016,08,10,03,11,16.70
2016,08,10,03,12,16.70
2016,08,10,03,13,16.70
2016,08,10,03,14,16.70
2016,08,10,03,15,16.70
2016,08,10,03,16,16.70
2016,08,10,03,17,16.70
2016,08,10,03,18,16.70
2016,08,10,03,19,16.70
2016,08,10,03,20,16.70
2016,08,10,03,21,16.70
2016,08,10,03,22,16.70
2016,08,10,03,23,16.70
2016,08,10,03,24,16.70
2016,08,10,03,25,16.70
2016,08,10,03,26,16.70
2016,08,10,03,27,16.70
2016,08,10,03,28,16.70
2016,08,10,03,29,16.70
2016,08,10,03,30,16.70
2016,08,10,03,31,16.70
2016,08,10,03,32,16.70
2016,08,10,03,33,16.70
2016,08,10,03,34,16.70
2016,08,10,03,35,16.70
2016,08,10,03,36,16.70
2016,08,10,03,37,16.70
2016,08,10,03,38,16.70
2016,08,10,03,39,16.70
2016,08,10,03,40,16.70
2016,08,10,03,41,16.70
2016,08,10,03,42,16.70
2016,08,10,03,43,16.70
2016,08,10,03,44,16.70
2016,08,10,03,45,16.70
2016,08,10,03,46,16.70
2016,08,10,03,47,16.70
2016,08,10,03,48,16.70
2016,08,10,03,49,16.70
2016,08,10,03,50,16.70
2016,08,10,03,51,16.70
2016,08,10,03,52,16.70
2016,08,10,03,53,16.70
2016,08,10,03,54,16.70
2016,08,10,03,55,16.70
2016,08,10,03,56,16.70
2016,08,10,03,57,16.70
2016,08,10,03,58,16.70
2016,08,10,03,59,16.70
2016,08,10,04,00,16.70
2016,08,10,04,01,16.70
2016,08,10,04,02,16.70
2016,08,10,04,03,16.70
2016,08,10,04,04,16.70
2016,08,10,04,05,16.70
2016,08,10,04,06,16.70
2016,08,10,04,07,16.70
2016,08,10,04,08,16.70
2016,08,10,04,09,16.70
2016,08,10,04,10,16.70
2016,08,10,04,11,16.70
2016,08,10,04,12,16.70
2016,08,10,04,13,16.70
2016,08,10,04,14,16.70
2016,08,10,04,15,16.70
2016,08,10,04,16,16.70
2016,08,10,04,17,16.70
2016,08,10,04,18,16.70
2016,08,10,04,19,16.70
2016,08,10,04,20,16.70
2016,08,10,04,21,16.70
2016,08,10,04,22,16.70
2016,08,10,04,23,16.70
2016,08,10,04,24,16.70
2016,08,10,04,25,16.70
2016,08,10,04,26,16.80
2016,08,10,04,27,16.80
2016,08,10,04,28,16.80
2016,08,10,04,29,16.80
2016,08,10,04,30,16.80
2016,08,10,04,31,16.80
2016,08,10,04,32,16.80
2016,08,10,04,33,16.80
2016,08,10,04,34,16.80
2016,08,10,04,35,16.80
2016,08,10,04,36,16.80
2016,08,10,04,37,16.80
2016,08,10,04,38,16.80
2016,08,10,04,39,16.80
2016,08,10,04,40,16.80
2016,08,10,04,41,16.80
2016,08,10,04,42,16.80
2016,08,10,04,43,16.80
2016,08,10,04,44,16.80
2016,08,10,04,45,16.80
2016,08,10,04,46,16.80
2016,08,10,04,47,16.80
2016,08,10,04,48,16.80
2016,08,10,04,49,16.80
2016,08,10,04,50,16.80
2016,08,10,04,51,16.80
2016,08,10,04,52,16.80
2016,08,10,04,53,16.80
2016,08,10,04,54,16.80
2016,08,10,04,55,16.80
2016,08,10,04,56,16.80
2016,08,10,04,57,16.80
2016,08,10,04,58,16.90
2016,08,10,04,59,16.90
2016,08,10,05,00,16.90
2016,08,10,05,01,16.80
2016,08,10,05,02,16.90
2016,08,10,05,03,16.90
2016,08,10,05,04,16.90
2016,08,10,05,05,16.90
2016,08,10,05,06,16.90
2016,08,10,05,07,16.90
2016,08,10,05,08,16.90
2016,08,10,05,09,16.90
2016,08,10,05,10,16.90
2016,08,10,05,11,16.90
2016,08,10,05,12,16.90
2016,08,10,05,13,16.90
2016,08,10,05,14,16.90
2016,08,10,05,15,16.90
2016,08,10,05,16,16.90
2016,08,10,05,17,16.90
2016,08,10,05,18,16.90
2016,08,10,05,19,16.90
2016,08,10,05,20,16.80
2016,08,10,05,21,16.80
2016,08,10,05,22,16.80
2016,08,10,05,23,16.80
2016,08,10,05,24,16.80
2016,08,10,05,25,16.80
2016,08,10,05,26,16.80
2016,08,10,05,27,16.80
2016,08,10,05,28,16.80
2016,08,10,05,29,16.80
2016,08,10,05,30,16.80
2016,08,10,05,31,16.80
2016,08,10,05,32,16.80
2016,08,10,05,33,16.80
2016,08,10,05,34,16.80
2016,08,10,05,35,16.80
2016,08,10,05,36,16.80
2016,08,10,05,37,16.80
2016,08,10,05,38,16.80
2016,08,10,05,39,16.80
2016,08,10,05,40,16.80
2016,08,10,05,41,16.80
2016,08,10,05,42,16.80
2016,08,10,05,43,16.80
2016,08,10,05,44,16.80
2016,08,10,05,45,16.80
2016,08,10,05,46,16.80
2016,08,10,05,47,16.80
2016,08,10,05,48,16.80
2016,08,10,05,49,16.80
2016,08,10,05,50,16.80
2016,08,10,05,51,16.80
2016,08,10,05,52,16.80
2016,08,10,05,53,16.80
2016,08,10,05,54,16.90
2016,08,10,05,55,16.90
2016,08,10,05,56,16.90
2016,08,10,05,57,16.90
2016,08,10,05,58,16.90
2016,08,10,05,59,16.90
2016,08,10,06,00,16.90
2016,08,10,06,01,16.90
2016,08,10,06,02,16.90
2016,08,10,06,03,16.90
2016,08,10,06,04,16.90
2016,08,10,06,05,16.90
2016,08,10,06,06,16.90
2016,08,10,06,07,16.90
2016,08,10,06,08,16.90
2016,08,10,06,09,16.90
2016,08,10,06,10,16.90
2016,08,10,06,11,16.90
2016,08,10,06,12,16.90
2016,08,10,06,13,16.90
2016,08,10,06,14,16.90
2016,08,10,06,15,16.90
2016,08,10,06,16,17.00
2016,08,10,06,17,17.00
2016,08,10,06,18,17.00
2016,08,10,06,19,17.00
2016,08,10,06,20,17.00
2016,08,10,06,21,17.00
2016,08,10,06,22,17.00
2016,08,10,06,23,17.00
2016,08,10,06,24,17.00
2016,08,10,06,25,17.00
2016,08,10,06,26,17.00
2016,08,10,06,27,17.00
2016,08,10,06,28,17.00
2016,08,10,06,29,17.00
2016,08,10,06,30,17.00
2016,08,10,06,31,17.00
2016,08,10,06,32,17.00
2016,08,10,06,33,17.00
2016,08,10,06,34,17.00
2016,08,10,06,35,17.00
2016,08,10,06,36,17.10
2016,08,10,06,37,17.10
2016,08,10,06,38,17.10
2016,08,10,06,39,17.10
2016,08,10,06,40,17.10
2016,08,10,06,41,17.10
2016,08,10,06,42,17.10
2016,08,10,06,43,17.10
2016,08,10,06,44,17.10
2016,08,10,06,45,17.10
2016,08,10,06,46,17.10
2016,08,10,06,47,17.10
2016,08,10,06,48,17.10
2016,08,10,06,49,17.10
2016,08,10,06,50,17.10
2016,08,10,06,51,17.10
2016,08,10,06,52,17.10
2016,08,10,06,53,17.10
2016,08,10,06,54,17.10
2016,08,10,06,55,17.10
2016,08,10,06,56,17.10
2016,08,10,06,57,17.10
2016,08,10,06,58,17.10
2016,08,10,06,59,17.20
2016,08,10,07,00,17.20
2016,08,10,07,01,17.20
2016,08,10,07,02,17.20
2016,08,10,07,03,17.20
2016,08,10,07,04,17.20
2016,08,10,07,05,17.20
2016,08,10,07,06,17.20
2016,08,10,07,07,17.20
2016,08,10,07,08,17.20
2016,08,10,07,09,17.20
2016,08,10,07,10,17.20
2016,08,10,07,11,17.20
2016,08,10,07,12,17.20
2016,08,10,07,13,17.20
2016,08,10,07,14,17.20
2016,08,10,07,15,17.20
2016,08,10,07,16,17.20
2016,08,10,07,17,17.30
2016,08,10,07,18,17.30
2016,08,10,07,19,17.30
2016,08,10,07,20,17.30
2016,08,10,07,21,17.30
2016,08,10,07,22,17.30
2016,08,10,07,23,17.30
2016,08,10,07,24,17.30
2016,08,10,07,25,17.30
2016,08,10,07,26,17.30
2016,08,10,07,27,17.30
2016,08,10,07,28,17.30
2016,08,10,07,29,17.40
2016,08,10,07,30,17.40
2016,08,10,07,31,17.40
2016,08,10,07,32,17.40
2016,08,10,07,33,17.40
2016,08,10,07,34,17.40
2016,08,10,07,35,17.40
2016,08,10,07,36,17.40
2016,08,10,07,37,17.40
2016,08,10,07,38,17.40
2016,08,10,07,39,17.40
2016,08,10,07,40,17.40
2016,08,10,07,41,17.40
2016,08,10,07,42,17.40
2016,08,10,07,43,17.50
2016,08,10,07,44,17.40
2016,08,10,07,45,17.40
2016,08,10,07,46,17.50
2016,08,10,07,47,17.50
2016,08,10,07,48,17.50
2016,08,10,07,49,17.50
2016,08,10,07,50,17.50
2016,08,10,07,51,17.50
2016,08,10,07,52,17.50
2016,08,10,07,53,17.50
2016,08,10,07,54,17.50
2016,08,10,07,55,17.50
2016,08,10,07,56,17.50
2016,08,10,07,57,17.50
2016,08,10,07,58,17.50
2016,08,10,07,59,17.50
2016,08,10,08,00,17.50
2016,08,10,08,01,17.50
2016,08,10,08,02,17.50
2016,08,10,08,03,17.50
2016,08,10,08,04,17.50
2016,08,10,08,05,17.50
2016,08,10,08,06,17.50
2016,08,10,08,07,17.50
2016,08,10,08,08,17.50
2016,08,10,08,09,17.50
2016,08,10,08,10,17.50
2016,08,10,08,11,17.60
2016,08,10,08,12,17.60
2016,08,10,08,13,17.60
2016,08,10,08,14,17.60
2016,08,10,08,15,17.60
2016,08,10,08,16,17.60
2016,08,10,08,17,17.60
2016,08,10,08,18,17.60
2016,08,10,08,19,17.70
2016,08,10,08,20,17.70
2016,08,10,08,21,17.70
2016,08,10,08,22,17.70
2016,08,10,08,23,17.70
2016,08,10,08,24,17.70
2016,08,10,08,25,17.70
2016,08,10,08,26,17.70
2016,08,10,08,27,17.70
2016,08,10,08,28,17.70
2016,08,10,08,29,17.70
2016,08,10,08,30,17.70
2016,08,10,08,31,17.80
2016,08,10,08,32,17.80
2016,08,10,08,33,17.80
2016,08,10,08,34,17.80
2016,08,10,08,35,17.80
2016,08,10,08,36,17.80
2016,08,10,08,37,17.80
2016,08,10,08,38,17.80
2016,08,10,08,39,17.80
2016,08,10,08,40,17.80
2016,08,10,08,41,17.80
2016,08,10,08,42,17.80
2016,08,10,08,43,17.90
2016,08,10,08,44,17.90
2016,08,10,08,45,17.90
2016,08,10,08,46,17.90
2016,08,10,08,47,17.90
2016,08,10,08,48,17.90
2016,08,10,08,49,17.90
2016,08,10,08,50,17.90
2016,08,10,08,51,17.90
2016,08,10,08,52,17.90
2016,08,10,08,53,17.90
2016,08,10,08,54,17.90
2016,08,10,08,55,17.90
2016,08,10,08,56,17.90
2016,08,10,08,57,17.90
2016,08,10,08,58,17.90
2016,08,10,08,59,17.90
2016,08,10,09,00,17.90
2016,08,10,09,01,17.90
2016,08,10,09,02,17.90
2016,08,10,09,03,17.90
2016,08,10,09,04,17.90
2016,08,10,09,05,18.00
2016,08,10,09,06,17.90
2016,08,10,09,07,17.90
2016,08,10,09,08,17.90
2016,08,10,09,09,18.00
2016,08,10,09,10,18.00
2016,08,10,09,11,18.00
2016,08,10,09,12,18.00
2016,08,10,09,13,18.10
2016,08,10,09,14,18.10
2016,08,10,09,15,18.10
2016,08,10,09,16,18.10
2016,08,10,09,17,18.20
2016,08,10,09,18,18.20
2016,08,10,09,19,18.20
2016,08,10,09,20,18.20
2016,08,10,09,21,18.20
2016,08,10,09,22,18.20
2016,08,10,09,23,18.20
2016,08,10,09,24,18.20
2016,08,10,09,25,18.20
2016,08,10,09,26,18.30
2016,08,10,09,27,18.30
2016,08,10,09,28,18.40
2016,08,10,09,29,18.40
2016,08,10,09,30,18.40
2016,08,10,09,31,18.50
2016,08,10,09,32,18.50
2016,08,10,09,33,18.60
2016,08,10,09,34,18.60
2016,08,10,09,35,18.60
2016,08,10,09,36,18.60
2016,08,10,09,37,18.70
2016,08,10,09,38,18.70
2016,08,10,09,39,18.80
2016,08,10,09,40,18.80
2016,08,10,09,41,18.90
2016,08,10,09,42,18.90
2016,08,10,09,43,18.90
2016,08,10,09,44,19.00
2016,08,10,09,45,19.00
2016,08,10,09,46,19.10
2016,08,10,09,47,19.10
2016,08,10,09,48,19.10
2016,08,10,09,49,19.20
2016,08,10,09,50,19.20
2016,08,10,09,51,19.30
2016,08,10,09,52,19.30
2016,08,10,09,53,19.40
2016,08,10,09,54,19.40
2016,08,10,09,55,19.40
2016,08,10,09,56,19.50
2016,08,10,09,57,19.50
2016,08,10,09,58,19.50
2016,08,10,09,59,19.60
2016,08,10,10,00,19.60
2016,08,10,10,01,19.60
2016,08,10,10,02,19.50
2016,08,10,10,03,19.50
2016,08,10,10,04,19.60
2016,08,10,10,05,19.60
2016,08,10,10,06,19.60
2016,08,10,10,07,19.70
2016,08,10,10,08,19.70
2016,08,10,10,09,19.70
2016,08,10,10,10,19.70
2016,08,10,10,11,19.70
2016,08,10,10,12,19.70
2016,08,10,10,13,19.70
2016,08,10,10,14,19.70
2016,08,10,10,15,19.70
2016,08,10,10,16,19.60
2016,08,10,10,17,19.60
2016,08,10,10,18,19.60
2016,08,10,10,19,19.60
2016,08,10,10,20,19.60
2016,08,10,10,21,19.60
2016,08,10,10,22,19.50
2016,08,10,10,23,19.50
2016,08,10,10,24,19.50
2016,08,10,10,25,19.40
2016,08,10,10,26,19.40
2016,08,10,10,27,19.40
2016,08,10,10,28,19.40
2016,08,10,10,29,19.40
2016,08,10,10,30,19.40
2016,08,10,10,31,19.40
2016,08,10,10,32,19.40
2016,08,10,10,33,19.40
2016,08,10,10,34,19.40
2016,08,10,10,35,19.50
2016,08,10,10,36,19.50
2016,08,10,10,37,19.60
2016,08,10,10,38,19.60
2016,08,10,10,39,19.70
2016,08,10,10,40,19.70
2016,08,10,10,41,19.70
2016,08,10,10,42,19.70
2016,08,10,10,43,19.70
2016,08,10,10,44,19.80
2016,08,10,10,45,19.80
2016,08,10,10,46,19.80
2016,08,10,10,47,19.80
2016,08,10,10,48,19.80
2016,08,10,10,49,19.70
2016,08,10,10,50,19.70
2016,08,10,10,51,19.70
2016,08,10,10,52,19.70
2016,08,10,10,53,19.70
2016,08,10,10,54,19.70
2016,08,10,10,55,19.60
2016,08,10,10,56,19.60
2016,08,10,10,57,19.50
2016,08,10,10,58,19.50
2016,08,10,10,59,19.50
2016,08,10,11,00,19.50
2016,08,10,11,01,19.40
2016,08,10,11,02,19.30
2016,08,10,11,03,19.30
2016,08,10,11,04,19.30
2016,08,10,11,05,19.40
2016,08,10,11,06,19.50
2016,08,10,11,07,19.50
2016,08,10,11,08,19.40
2016,08,10,11,09,19.40
2016,08,10,11,10,19.40
2016,08,10,11,11,19.30
2016,08,10,11,12,19.30
2016,08,10,11,13,19.30
2016,08,10,11,14,19.30
2016,08,10,11,15,19.30
2016,08,10,11,16,19.20
2016,08,10,11,17,19.20
2016,08,10,11,18,19.20
2016,08,10,11,19,19.20
2016,08,10,11,20,19.10
2016,08,10,11,21,19.10
2016,08,10,11,22,19.10
2016,08,10,11,23,19.20
2016,08,10,11,24,19.20
2016,08,10,11,25,19.30
2016,08,10,11,26,19.30
2016,08,10,11,27,19.40
2016,08,10,11,28,19.40
2016,08,10,11,29,19.50
2016,08,10,11,30,19.50
2016,08,10,11,31,19.40
2016,08,10,11,32,19.40
2016,08,10,11,33,19.40
2016,08,10,11,34,19.40
2016,08,10,11,35,19.40
2016,08,10,11,36,19.30
2016,08,10,11,37,19.30
2016,08,10,11,38,19.40
2016,08,10,11,39,19.40
2016,08,10,11,40,19.40
2016,08,10,11,41,19.40
2016,08,10,11,42,19.40
2016,08,10,11,43,19.40
2016,08,10,11,44,19.40
2016,08,10,11,45,19.40
2016,08,10,11,46,19.40
2016,08,10,11,47,19.40
2016,08,10,11,48,19.40
2016,08,10,11,49,19.40
2016,08,10,11,50,19.40
2016,08,10,11,51,19.40
2016,08,10,11,52,19.50
2016,08,10,11,53,19.50
2016,08,10,11,54,19.60
2016,08,10,11,55,19.60
2016,08,10,11,56,19.60
2016,08,10,11,57,19.60
2016,08,10,11,58,19.60
2016,08,10,11,59,19.60
2016,08,10,12,00,19.60
2016,08,10,12,01,19.60
2016,08,10,12,02,19.60
2016,08,10,12,03,19.70
2016,08,10,12,04,19.70
2016,08,10,12,05,19.80
2016,08,10,12,06,19.80
2016,08,10,12,07,19.80
2016,08,10,12,08,19.90
2016,08,10,12,09,19.90
2016,08,10,12,10,19.90
2016,08,10,12,11,20.00
2016,08,10,12,12,20.00
2016,08,10,12,13,20.10
2016,08,10,12,14,20.10
2016,08,10,12,15,20.10
2016,08,10,12,16,20.20
2016,08,10,12,17,20.20
2016,08,10,12,18,20.20
2016,08,10,12,19,20.20
2016,08,10,12,20,20.10
2016,08,10,12,21,20.20
2016,08,10,12,22,20.20
2016,08,10,12,23,20.20
2016,08,10,12,24,20.30
2016,08,10,12,25,20.30
2016,08,10,12,26,20.30
2016,08,10,12,27,20.30
2016,08,10,12,28,20.30
2016,08,10,12,29,20.30
2016,08,10,12,30,20.30
2016,08,10,12,31,20.20
2016,08,10,12,32,20.20
2016,08,10,12,33,20.20
2016,08,10,12,34,20.20
2016,08,10,12,35,20.20
2016,08,10,12,36,20.20
2016,08,10,12,37,20.20
2016,08,10,12,38,20.20
2016,08,10,12,39,20.20
2016,08,10,12,40,20.20
2016,08,10,12,41,20.20
2016,08,10,12,42,20.30
2016,08,10,12,43,20.30
2016,08,10,12,44,20.30
2016,08,10,12,45,20.30
2016,08,10,12,46,20.30
2016,08,10,12,47,20.30
2016,08,10,12,48,20.30
2016,08,10,12,49,20.30
2016,08,10,12,50,20.30
2016,08,10,12,51,20.40
2016,08,10,12,52,20.40
2016,08,10,12,53,20.40
2016,08,10,12,54,20.50
2016,08,10,12,55,20.50
2016,08,10,12,56,20.50
2016,08,10,12,57,20.50
2016,08,10,12,58,20.50
2016,08,10,12,59,20.50
2016,08,10,13,00,20.50
2016,08,10,13,01,20.50
2016,08,10,13,02,20.50
2016,08,10,13,03,20.50
2016,08,10,13,04,20.50
2016,08,10,13,05,20.50
2016,08,10,13,06,20.40
2016,08,10,13,07,20.40
2016,08,10,13,08,20.40
2016,08,10,13,09,20.40
2016,08,10,13,10,20.40
2016,08,10,13,11,20.50
2016,08,10,13,12,20.50
2016,08,10,13,13,20.60
2016,08,10,13,14,20.60
2016,08,10,13,15,20.70
2016,08,10,13,16,20.70
2016,08,10,13,17,20.80
2016,08,10,13,18,20.80
2016,08,10,13,19,20.80
2016,08,10,13,20,20.80
2016,08,10,13,21,20.90
2016,08,10,13,22,20.90
2016,08,10,13,23,20.90
2016,08,10,13,24,20.90
2016,08,10,13,25,20.80
2016,08,10,13,26,20.80
2016,08,10,13,27,20.80
2016,08,10,13,28,20.80
2016,08,10,13,29,20.80
2016,08,10,13,30,20.80
2016,08,10,13,31,20.90
2016,08,10,13,32,21.00
2016,08,10,13,33,21.00
2016,08,10,13,34,21.10
2016,08,10,13,35,21.10
2016,08,10,13,36,21.10
2016,08,10,13,37,21.20
2016,08,10,13,38,21.20
2016,08,10,13,39,21.20
2016,08,10,13,40,21.30
2016,08,10,13,41,21.30
2016,08,10,13,42,21.20
2016,08,10,13,43,21.20
2016,08,10,13,44,21.30
2016,08,10,13,45,21.30
2016,08,10,13,46,21.40
2016,08,10,13,47,21.40
2016,08,10,13,48,21.40
2016,08,10,13,49,21.40
2016,08,10,13,50,21.40
2016,08,10,13,51,21.50
2016,08,10,13,52,21.50
2016,08,10,13,53,21.50
2016,08,10,13,54,21.50
2016,08,10,13,55,21.50
2016,08,10,13,56,21.60
2016,08,10,13,57,21.60
2016,08,10,13,58,21.60
2016,08,10,13,59,21.50
2016,08,10,14,00,21.50
2016,08,10,14,01,21.40
2016,08,10,14,02,21.40
2016,08,10,14,03,21.40
2016,08,10,14,04,21.40
2016,08,10,14,05,21.40
2016,08,10,14,06,21.40
2016,08,10,14,07,21.40
2016,08,10,14,08,21.30
2016,08,10,14,09,21.30
2016,08,10,14,10,21.30
2016,08,10,14,11,21.30
2016,08,10,14,12,21.30
2016,08,10,14,13,21.30
2016,08,10,14,14,21.30
2016,08,10,14,15,21.30
2016,08,10,14,16,21.40
2016,08,10,14,17,21.40
2016,08,10,14,18,21.40
2016,08,10,14,19,21.40
2016,08,10,14,20,21.40
2016,08,10,14,21,21.40
2016,08,10,14,22,21.30
2016,08,10,14,23,21.30
2016,08,10,14,24,21.30
2016,08,10,14,25,21.30
2016,08,10,14,26,21.30
2016,08,10,14,27,21.20
2016,08,10,14,28,21.20
2016,08,10,14,29,21.30
2016,08,10,14,30,21.30
2016,08,10,14,31,21.30
2016,08,10,14,32,21.30
2016,08,10,14,33,21.30
2016,08,10,14,34,21.40
2016,08,10,14,35,21.40
2016,08,10,14,36,21.40
2016,08,10,14,37,21.40
2016,08,10,14,38,21.50
2016,08,10,14,39,21.50
2016,08,10,14,40,21.60
2016,08,10,14,41,21.60
2016,08,10,14,42,21.70
2016,08,10,14,43,21.70
2016,08,10,14,44,21.80
2016,08,10,14,45,21.80
2016,08,10,14,46,21.80
2016,08,10,14,47,21.80
2016,08,10,14,48,21.80
2016,08,10,14,49,21.70
2016,08,10,14,50,21.70
2016,08,10,14,51,21.70
2016,08,10,14,52,21.60
2016,08,10,14,53,21.60
2016,08,10,14,54,21.60
2016,08,10,14,55,21.60
2016,08,10,14,56,21.60
2016,08,10,14,57,21.60
2016,08,10,14,58,21.60
2016,08,10,14,59,21.60
2016,08,10,15,00,21.60
2016,08,10,15,01,21.70
2016,08,10,15,02,21.70
2016,08,10,15,03,21.70
2016,08,10,15,04,21.80
2016,08,10,15,05,21.80
2016,08,10,15,06,21.80
2016,08,10,15,07,21.90
2016,08,10,15,08,21.90
2016,08,10,15,09,21.90
2016,08,10,15,10,21.90
2016,08,10,15,11,21.90
2016,08,10,15,12,21.80
2016,08,10,15,13,21.80
2016,08,10,15,14,21.80
2016,08,10,15,15,21.80
2016,08,10,15,16,21.90
2016,08,10,15,17,21.90
2016,08,10,15,18,21.90
2016,08,10,15,19,21.90
2016,08,10,15,20,21.90
2016,08,10,15,21,21.80
2016,08,10,15,22,21.80
2016,08,10,15,23,21.70
2016,08,10,15,24,21.70
2016,08,10,15,25,21.70
2016,08,10,15,26,21.70
2016,08,10,15,27,21.70
2016,08,10,15,28,21.70
2016,08,10,15,29,21.70
2016,08,10,15,30,21.70
2016,08,10,15,31,21.70
2016,08,10,15,32,21.70
2016,08,10,15,33,21.70
2016,08,10,15,34,21.70
2016,08,10,15,35,21.70
2016,08,10,15,36,21.70
2016,08,10,15,37,21.70
2016,08,10,15,38,21.70
2016,08,10,15,39,21.70
2016,08,10,15,40,21.70
2016,08,10,15,41,21.80
2016,08,10,15,42,21.80
2016,08,10,15,43,21.90
2016,08,10,15,44,21.90
2016,08,10,15,45,22.00
2016,08,10,15,46,22.10
2016,08,10,15,47,22.10
2016,08,10,15,48,22.20
2016,08,10,15,49,22.20
2016,08,10,15,50,22.20
2016,08,10,15,51,22.30
2016,08,10,15,52,22.30
2016,08,10,15,53,22.40
2016,08,10,15,54,22.50
2016,08,10,15,55,22.60
2016,08,10,15,56,22.80
2016,08,10,15,57,22.90
2016,08,10,15,58,23.10
2016,08,10,15,59,23.20
2016,08,10,16,00,23.20
2016,08,10,16,01,23.30
2016,08,10,16,02,23.30
2016,08,10,16,03,23.30
2016,08,10,16,04,23.40
2016,08,10,16,05,23.40
2016,08,10,16,06,23.40
2016,08,10,16,07,23.50
2016,08,10,16,08,23.60
2016,08,10,16,09,23.60
2016,08,10,16,10,23.60
2016,08,10,16,11,23.60
2016,08,10,16,12,23.60
2016,08,10,16,13,23.60
2016,08,10,16,14,23.50
2016,08,10,16,15,23.40
2016,08,10,16,16,23.40
2016,08,10,16,17,23.30
2016,08,10,16,18,23.20
2016,08,10,16,19,23.20
2016,08,10,16,20,23.20
2016,08,10,16,21,23.10
2016,08,10,16,22,23.10
2016,08,10,16,23,23.10
2016,08,10,16,24,23.10
2016,08,10,16,25,23.10
2016,08,10,16,26,23.20
2016,08,10,16,27,23.20
2016,08,10,16,28,23.20
2016,08,10,16,29,23.30
2016,08,10,16,30,23.30
2016,08,10,16,31,23.30
2016,08,10,16,32,23.30
2016,08,10,16,33,23.30
2016,08,10,16,34,23.30
2016,08,10,16,35,23.30
2016,08,10,16,36,23.30
2016,08,10,16,37,23.20
2016,08,10,16,38,23.10
2016,08,10,16,39,23.00
2016,08,10,16,40,23.00
2016,08,10,16,41,22.90
2016,08,10,16,42,22.80
2016,08,10,16,43,22.70
2016,08,10,16,44,22.70
2016,08,10,16,45,22.70
2016,08,10,16,46,22.70
2016,08,10,16,47,22.80
2016,08,10,16,48,22.80
2016,08,10,16,49,22.80
2016,08,10,16,50,22.80
2016,08,10,16,51,22.80
2016,08,10,16,52,22.80
2016,08,10,16,53,22.80
2016,08,10,16,54,22.90
2016,08,10,16,55,22.90
2016,08,10,16,56,22.90
2016,08,10,16,57,22.90
2016,08,10,16,58,22.80
2016,08,10,16,59,22.80
2016,08,10,17,00,22.80
2016,08,10,17,01,22.80
2016,08,10,17,02,22.70
2016,08,10,17,03,22.70
2016,08,10,17,04,22.80
2016,08,10,17,05,22.80
2016,08,10,17,06,22.80
2016,08,10,17,07,22.80
2016,08,10,17,08,22.90
2016,08,10,17,09,23.00
2016,08,10,17,10,23.00
2016,08,10,17,11,23.00
2016,08,10,17,12,23.00
2016,08,10,17,13,22.90
2016,08,10,17,14,22.90
2016,08,10,17,15,22.90
2016,08,10,17,16,22.90
2016,08,10,17,17,22.80
2016,08,10,17,18,22.80
2016,08,10,17,19,22.70